Погода в Украинском

Украина / Харьковская область     50°10′02″N   36°58′21″E
темп.,
°C
ветер,
м/с
пор.,
м/с
влажн.,
%
обл.,
%
осадки,
мм/ч
давл.,
гПа
погр.,
м
27 сентября, пн
пн2700:00+8зсз6128921 0.0 1015460
03:00+8сз6118759 0.1 1016642
06:00+7сз51191100 0.0 1017443
09:00+10ссз71079100 0.0 1017812
12:00+12ссз6868100 0.1 10181084
15:00+14ссз575799 0.2 10181390
18:00+12с486999 0.4 1019382
21:00+9с398417 0.5 1020230
28 сентября, вт
вт2800:00+7с36915 0.0 1021120
03:00+7ссз2487100 0.0 102195
06:00+8с3789100 0.1 1021255
09:00+10ссв4784100 0.4 1022409
12:00+12св6666100 0.7 10231130
15:00+11св577289 0.9 1024711
18:00+10св586892 0.0 1026512
21:00+7св598160 0.0 1028509
29 сентября, ср
ср2900:00+7св5883100 0.0 1029683
03:00+7св5878100 0.0 1030612
06:00+7св5872100 0.0 1031546
09:00+8всв676125 0.0 1032717
12:00+11св56455 0.0 10321320
15:00+13св563698 0.0 10311561
18:00+10св474452 0.0 1031179
21:00+7св38555 0.0 1033164
30 сентября, чт
чт3000:00+5св35635 0.0 103395
03:00+4всв33675 0.0 103445
06:00+3св337054 0.0 103545
09:00+7всв355476 0.0 1035355
12:00+12всв34385 0.0 10351301
15:00+13всв33345 0.0 10341561
18:00+10всв33450 0.0 103440
21:00+7в34520 0.0 103560
1 октября, пт
пт100:00+6в33585 0.0 103632
03:00+5в22625 0.0 103613
06:00+4в226643 0.0 103612
09:00+9в235033 0.0 1037259
12:00+13в23383 0.0 10361340
15:00+14всв23345 0.0 10351592
18:00+11всв22460 0.0 103517
21:00+8в33543 0.0 103528